Simultaneous Nadir Overpasses (SNOs) Predictions

Prediction of SNOs between NOAA-20 and AQUA Satellite Orbit:

Table of predicted SNOs for the next 14.0 days since TLE Epoch: 4/6/2018
Index Date (NOAA-20) Time (NOAA-20) Lat,Lon (NOAA-20) SZA (NOAA-20 ) Date (AQUA) Time (AQUA) Lat,Lon (AQUA) SZA (AQUA ) Distance(km) Time Diff (sec)
1 04/08/2018 06:46:30 -76.36, 138.46 90.17 04/08/2018 06:47:04 -76.36, 138.54 90.21 2.28 34
2 04/08/2018 07:36:53 77.28, -50.54 88.65 04/08/2018 07:36:10 77.29, -50.49 88.67 1.27 43
3 04/10/2018 23:03:15 -76.77,-104.20 91.70 04/10/2018 23:03:25 -76.77,-104.19 91.70 0.22 10
4 04/10/2018 23:53:40 77.59, 66.63 87.23 04/10/2018 23:52:33 77.59, 66.61 87.29 0.54 67
5 04/13/2018 14:29:34 76.25,-157.69 87.98 04/13/2018 14:30:37 76.25,-157.73 87.94 1.11 63
6 04/13/2018 15:19:58 -77.22, 13.42 93.26 04/13/2018 15:19:44 -77.21, 13.31 93.23 2.68 14
7 04/16/2018 06:46:26 76.35, -41.55 86.89 04/16/2018 06:47:04 76.36, -41.48 86.84 2.07 38
8 04/16/2018 07:36:50 -77.32, 129.62 94.36 04/16/2018 07:36:11 -77.32, 129.61 94.33 0.24 39
9 04/18/2018 23:03:09 76.85, 76.13 85.31 04/18/2018 23:03:23 76.85, 76.08 85.31 1.46 14




NCC Satellite Simultaneous Nadir Overpasses (SNOs) Prediction Service
